Location: Bagnolo San Vito
(45.0833°N, 10.8833°E)
Time: 09:18:14
(UTC+00:00)

Meteor 1-25 Rocket - Pass Details

Date: 03 March 2021
Orbit: 835 x 893 km, 81.2° (Epoch: 19 April)

Event Time Altitude Azimuth Distance (km) Brightness Sun altitude
Rises 17:29:17 0° 179° (S) 3,473 7.4 -4.8°
Reaches altitude 10° 17:31:45 10° 176° (S) 2,532 6.7 -5.2°
Maximum altitude 17:37:26 65° 96° (E) 960 4.3 -6.2°
Drops below altitude 10° 17:43:05 10° 16° (NNE) 2,512 6.5 -7.2°
Sets 17:45:31 0° 14° (NNE) 3,444 7.2 -7.7°
